Location: Epalinges
(46.5518°N, 6.6683°E)
Time: 13:56:30
(UTC+00:00)

Cosmos 990 Rocket - Pass Details

Date: 20 June 2021
Orbit: 747 x 768 km, 74.0° (Epoch: 31 July)

Event Time Altitude Azimuth Distance (km) Brightness Sun altitude
Rises 00:12:42 0° 337° (NNW) 3,226 8.2 -19.5°
Reaches altitude 10° 00:15:05 10° 337° (NNW) 2,293 7.3 -19.4°
Maximum altitude 00:20:17 83° 250° (WSW) 764 3.9 -19.3°
Enters shadow 00:22:32 35° 165° (SSE) 1,207 4.5 -19.2°
